Regional Weather Roundup
Issued by NWS

Home | Current Version | Previous Version | Text Only | Print | Product List | Glossary Off
Versions: 1 2 3 4 5 6 7 8 9 10 11 12 13 14 15 16 17 18 19 20 21 22 23 24 25 26 27 28 29 30 31 32 33 34 35 36 37 38 39 40 41 42 43 44 45 46 47 48 49 50

000
ASUS43 KLOT 272309
RWRIL

ILLINOIS REGIONAL WEATHER ROUNDUP
NATIONAL WEATHER SERVICE CHICAGO/ROMEOVILLE IL
600 PM CDT SAT AUG 27 2016

NOTE: "FAIR" INDICATES FEW OR NO CLOUDS BELOW 12,000 FEET WITH NO
SIGNIFICANT WEATHER AND/OR OBSTRUCTIONS TO VISIBILITY.

* THESE STATIONS ARE NOT UNDER NWS QUALITY CONTROL. THEY ALSO MAY NOT
  REPORT WEATHER SUCH AS PRECIPITATION OR FOG.

ILZ001-002-007-009-015-016-024-280000-
NORTHWEST ILLINOIS

CITY           SKY/WX    TMP DP  RH WIND       PRES   REMARKS
MOLINE         PTSUNNY   83  71  67 SW5       30.00R HX  87
STERLING*      MOSUNNY   83  73  72 VRB5      30.01S HX  89
SAVANNA*       CLOUDY    81  69  68 W5        30.01S HX  84
$$

ILZ003-004-008-010-011-017-018-280000-
NORTH CENTRAL ILLINOIS

CITY           SKY/WX    TMP DP  RH WIND       PRES   REMARKS
ROCKFORD       PTSUNNY   81  70  69 W7        30.02R HX  84
FREEPORT*      MOSUNNY   78  69  73 SW8       30.03S HX  80
ROCHELLE*      CLOUDY    76  72  86 SW5       30.02S
DE KALB*       CLOUDY    80  72  78 SW13      30.03S HX  83
$$

ILZ005-006-012>014-019>023-280000-
NORTHEAST ILLINOIS

CITY           SKY/WX    TMP DP  RH WIND       PRES   REMARKS
CHICAGO-OHARE  PTSUNNY   81  69  67 SW10      30.01R HX  84
CHICAGO-MIDWAY PTSUNNY   84  69  60 S14       30.00S HX  88
AURORA         CLOUDY    81  71  71 SW9       30.02S HX  85
LANSING*       SUNNY     83  74  74 SW7       30.02S HX  90
JOLIET*        SUNNY     83  73  72 SW3       30.02R HX  89
WAUKEGAN       CLOUDY    80  70  71 SW10      30.00S HX  83
DUPAGE AIRPORT MOSUNNY   81  70  69 SW12      30.01S HX  84
KANKAKEE*      SUNNY     85  73  65 SW6       30.04R HX  91
WHEELING       MOSUNNY   82  70  66 SW6       30.02R HX  86
MORRIS*        MOSUNNY   81  73  76 CALM      30.01S HX  85
ROMEOVILLE*    MOSUNNY   81  74  78 SW6       30.02R HX  86
NORTHERLY ISL    N/A     84  67  56 S8          N/A  HX  86
$$

LMZ740>746-280000-
SOUTHERN LAKE MICHIGAN

STATION/POSITION SKY/WX   TEMP    WIND        PRES    VSBY  WAVE
                          AIR SEA DIR/SP/G                  HT/PER
                          (F)     (DEG/KT/KT) (MB)    (MI)  (FT/S)
SOUTHERN BUOY              76 75  150/ 10/ 12 1015.7R         2/ 4
WILMETTE HARBOR            73 70  140/  2/  6   N/A           2/ 4
HARRISON CRIB              85     210/ 16/ 18   N/A
BURNHAM HARBOR             84     210/  8/ 13   N/A
CALUMET HARBOR             84     200/ 10/ 16 1015.6F
BURNS HARBOR               84     230/ 12/ 15 1016.6F
MICHIGAN CITY              82     180/  9/ 10   N/A
MICHIGAN CITY 6N           81 76  200/  6/  8   N/A           1/ 3
ST. JOSEPH                 79 77  130/  2/  2 1016.2F         1
$$

ILZ025>027-034>036-040-047-049-050-058-095>099-280000-
WEST-CENTRAL ILLINOIS

CITY           SKY/WX    TMP DP  RH WIND       PRES   REMARKS
QUINCY         MOSUNNY   87  73  62 SW6       30.01S HX  94
GALESBURG*     PTSUNNY   83  73  72 S5        30.01F HX  89
MACOMB*        CLOUDY    83  75  76 S6        30.03S HX  90
JACKSONVILLE*  CLOUDY    82  69  64 S5        30.03R HX  84
PITTSFIELD*    CLOUDY    85  75  70 S6        30.03S HX  93
$$

ILZ028>032-037-038-041>044-048-051>054-059>061-280000-
CENTRAL ILLINOIS

CITY           SKY/WX    TMP DP  RH WIND       PRES   REMARKS
PONTIAC        SUNNY     84  75  73 SW3       30.03S HX  92
BLOOMINGTON    MOSUNNY   82  72  71 S7        30.05S HX  87
DECATUR        PTSUNNY   85  74  69 S12       30.03S HX  92
PEORIA         PTSUNNY   83  74  74 S5        30.02S HX  89
LACON*         MOSUNNY   81  72  74 CALM      30.02R HX  86
LINCOLN*       MOSUNNY   86  72  62 CALM      30.02S HX  92
SPRINGFIELD    MOSUNNY   85  74  69 W5        30.03R HX  92
TAYLORVILLE    CLOUDY    83  75  77 S3        30.03S HX  91
$$

ILZ033-039-045-046-055>057-062-063-280000-
EAST-CENTRAL ILLINOIS

CITY           SKY/WX    TMP DP  RH WIND       PRES   REMARKS
CHAMPAIGN      SUNNY     82  74  76 S6        30.05S HX  88
RANTOUL*       CLOUDY    85  76  74 S5        30.05R HX  95
MATTOON        SUNNY     83  71  67 S7        30.05S HX  87
PARIS*         SUNNY     83  74  75 CALM      30.07S HX  90
$$

ILZ079-100>102-280000-
SOUTHWEST ILLINOIS

CITY           SKY/WX    TMP DP  RH WIND       PRES   REMARKS
ALTON          PTSUNNY   82  72  69 SE9       30.02R THUNDER HX  87
BELLEVILLE     SUNNY     88  73  60 SE9       30.01S HX  96
CAHOKIA*       MOSUNNY   86  72  62 S6        30.01S HX  92
SPARTA*        SUNNY     85  73  67 SE6       30.04R HX  92
$$

ILZ064>066-069>071-074>076-080>082-084>086-088>090-092>094-280000-
SOUTH-CENTRAL ILLINOIS

CITY           SKY/WX    TMP DP  RH WIND       PRES   REMARKS
CARBONDALE     MOSUNNY   86  73  65 SE5       30.03S HX  93
CAIRO*         SUNNY     87  76  70 E5        30.03R HX  98
EFFINGHAM*     SUNNY     84  74  71 SE3       30.07R HX  91
MT. VERNON     SUNNY     90  72  55 SE6       30.05S HX  96
CENTRALIA*     SUNNY     86  76  72 SE7       30.04R HX  96
SALEM*         PTSUNNY   86  74  66 SE5       30.05S HX  94
METROPOLIS*    SUNNY     90  74  59 CALM      30.04S HX  99
$$

ILZ067-068-072-073-078-083-087-091-280000-
SOUTHEAST ILLINOIS

CITY           SKY/WX    TMP DP  RH WIND       PRES   REMARKS
LAWRENCEVILLE  SUNNY     85  75  72 S5        30.06R HX  93
FLORA*         SUNNY     87  75  68 S7        30.05S HX  96
FAIRFIELD*     MOSUNNY   85  75  70 CALM      30.04S HX  94
HARRISBURG*    SUNNY     88  76  66 S3        30.04S HX  98
ROBINSON*      SUNNY     83  76  79 S3        30.06S HX  92
CARMI*         SUNNY     87  76  70 SE3       30.04S HX  97
$$

ABBREVIATIONS USED IN REMARKS
   TC - TEMPERATURE IN CELSIUS
  WCI - WIND CHILL INDEX
   HX - HEAT INDEX
  VSB - VISIBILITY
$$





USA.gov is the U.S. government's official web portal to all federal, state and local government web resources and services.